Theta_e
304 304 305 305 305 305 306 306 306 306 307 308 309 310 310 310 310 311 312 312 311 312 316 318 319 321 322 322 318 313 319 320 323 323 324 314 318 313 317 322 333 334 333 333 338
303 303 304 304 304 304 304 305 305 306 306 306 305 309 310 309 310 311 311 310 311 316 315 318 320 321 323 324 322 320 320 319 319 320 320 314 314 314 324 331 336 335 334 337 337
303 302 303 303 303 303 303 303 304 305 306 306 304 307 310 308 310 309 309 309 314 315 317 316 319 321 323 323 324 322 324 317 319 320 315 313 314 312 322 324 325 336 337 336 337
303 303 302 302 302 302 302 302 302 303 305 306 306 305 308 308 311 309 312 311 313 315 317 316 319 322 323 324 323 325 323 322 321 320 319 316 309 313 314 318 313 323 336 337 337
303 303 303 303 302 302 303 302 301 302 304 305 305 305 307 308 309 309 312 314 313 315 316 317 320 321 323 323 324 325 324 322 320 320 318 316 312 314 313 312 319 332 335 336 337
303 303 303 303 303 303 302 303 301 302 303 304 305 303 306 307 307 308 308 312 315 316 314 315 318 317 319 319 321 318 319 319 318 320 318 318 313 314 315 322 325 334 333 335 335
303 303 303 302 302 303 302 302 302 301 302 304 303 303 307 305 306 307 307 311 313 314 314 313 313 314 315 318 315 317 318 319 319 320 318 316 317 314 312 315 332 324 332 332 332
304 303 303 303 302 302 303 303 302 301 302 303 304 303 304 305 306 308 311 311 313 313 314 314 313 310 313 312 315 318 316 322 320 321 319 316 323 316 312 311 314 329 331 332 331
304 303 304 303 303 302 302 303 302 301 302 303 303 302 304 305 305 306 308 311 311 313 314 313 313 310 310 312 314 314 319 318 320 319 319 317 319 317 313 311 312 310 313 323 331
304 304 303 302 302 301 302 301 299 301 301 302 303 303 302 306 305 306 307 310 312 312 314 313 310 310 308 312 315 316 317 318 319 318 318 318 317 315 313 312 311 310 309 311 315
303 304 302 302 300 302 301 298 298 302 300 301 303 305 306 305 306 307 308 309 311 312 314 312 311 311 308 308 313 314 316 317 316 314 316 317 317 315 313 309 312 313 310 308 307
302 303 302 302 301 301 299 298 299 299 301 301 301 303 302 304 307 306 308 309 311 313 313 314 313 308 308 309 311 312 314 314 313 311 314 312 314 312 312 311 307 308 306 307 306
303 301 300 301 299 299 298 298 300 300 302 299 303 301 299 303 307 307 307 308 309 311 312 314 311 309 309 309 310 309 311 312 313 310 310 308 306 308 307 309 307 307 307 306 304
303 301 299 301 298 298 297 299 299 300 292 295 305 303 301 304 307 306 307 307 308 310 311 310 309 311 310 309 308 310 308 308 309 312 314 303 308 304 305 307 305 306 304 302 303
301 301 300 300 299 297 299 299 299 294 290 295 303 302 300 305 306 307 306 307 308 308 308 309 309 310 312 311 308 309 309 308 307 306 305 304 303 303 302 304 304 302 304 301 299
301 301 301 300 299 299 299 297 294 287 289 291 300 305 303 305 307 307 307 305 305 306 306 306 305 308 310 309 308 307 307 306 305 306 309 304 302 302 302 302 303 305 303 300 298
301 301 301 299 297 298 297 291 288 287 287 294 302 303 305 306 308 308 308 307 306 303 302 306 307 306 308 310 309 306 308 311 309 305 308 302 302 302 303 306 304 304 301 298 297
301 301 299 298 298 298 293 287 288 280 281 293 301 302 305 305 306 307 309 309 307 304 304 304 310 307 307 310 310 306 307 309 304 304 307 303 305 303 305 303 301 300 298 297 295
301 299 298 297 298 296 287 285 286 284 296 300 298 297 302 304 305 307 307 307 307 304 303 305 305 306 308 308 308 309 307 304 305 296 307 306 303 305 306 304 301 299 297 295 293
299 298 297 297 296 293 285 290 283 290 297 298 294 297 297 302 303 303 306 305 307 304 303 305 307 306 308 308 308 308 305 308 303 304 306 306 305 303 308 306 302 300 297 295 293
298 296 296 296 294 286 284 279 287 292 296 296 296 293 300 301 303 305 302 302 302 304 303 302 302 307 308 308 309 308 307 306 304 304 305 305 305 307 307 305 304 300 297 295 292
294 295 296 295 287 281 281 287 294 295 295 297 297 298 297 301 303 301 299 301 299 300 305 304 302 307 308 306 306 307 308 307 306 304 303 307 305 305 304 303 302 300 297 294 291
295 297 296 292 286 279 284 292 294 295 296 296 297 299 302 297 298 302 298 299 300 303 305 304 300 303 306 304 304 309 308 309 308 306 305 305 304 304 303 303 301 299 295 293 290
290 291 289 288 287 285 285 287 294 294 295 296 299 301 302 299 299 301 302 302 302 303 303 301 300 298 300 301 301 306 308 306 301 301 307 305 305 306 304 303 302 300 296 292 290
292 287 290 293 289 288 291 292 289 291 294 297 298 298 301 299 300 301 301 301 301 300 300 297 298 300 299 299 301 300 305 307 307 304 301 303 306 305 303 301 300 301 295 292 290
294 291 294 293 292 291 291 292 293 290 296 297 295 297 296 298 299 299 301 301 302 300 300 297 295 294 296 296 300 300 301 302 298 298 298 299 301 301 299 299 299 299 296 294 292
292 292 292 295 292 290 290 296 296 295 296 295 297 296 296 295 293 293 294 294 295 298 298 295 290 290 293 291 292 294 296 302 302 301 297 299 300 298 300 300 300 299 296 295 293
Wind_Speed
14 15 15 14 15 16 17 18 19 20 21 17 15 21 20 19 17 16 15 12 16 16 5 7 12 8 4 2 3 4 1 5 5 6 4 2 2 4 4 4 2 2 3 1 26
14 15 14 14 15 16 18 18 19 20 21 22 24 21 19 18 15 17 20 22 20 9 15 10 10 14 4 5 3 3 3 8 3 0 3 3 2 2 4 4 4 0 6 20 26
13 13 14 14 15 16 17 19 21 21 21 19 21 22 16 12 5 8 24 27 20 16 16 11 6 9 6 4 5 5 4 4 2 4 3 3 1 2 7 4 7 6 12 17 21
13 14 15 15 14 16 18 19 20 22 22 21 18 23 20 12 9 3 5 15 25 19 18 8 6 6 6 9 9 10 6 8 2 5 3 2 8 1 2 4 1 5 16 15 17
14 15 16 16 16 17 18 18 20 22 24 21 17 13 13 7 8 1 1 4 23 22 18 7 7 6 6 9 9 7 4 8 10 7 4 1 4 2 4 2 3 10 14 15 13
14 14 15 15 17 17 18 17 20 21 22 20 16 14 14 16 11 13 8 1 22 23 14 9 5 4 5 5 8 4 1 5 8 10 6 2 3 3 2 2 7 9 9 14 16
14 15 17 16 17 17 18 19 19 23 20 17 16 14 8 13 6 14 9 10 15 25 6 11 4 3 6 6 8 6 3 7 8 6 5 2 5 6 4 5 6 8 7 7 8
16 17 16 15 17 18 19 19 19 22 19 16 13 9 5 12 16 4 9 8 9 20 22 22 11 1 4 3 5 6 4 3 8 2 5 5 6 10 5 5 4 3 4 7 6
17 17 17 16 16 19 20 20 21 19 16 12 6 4 6 6 9 15 4 6 6 9 19 21 8 3 3 7 4 3 2 3 0 3 4 2 3 3 1 6 5 5 5 6 5
16 17 18 18 15 18 18 23 19 10 9 6 3 2 5 3 6 7 7 7 3 3 7 5 4 3 3 4 7 5 4 3 2 3 1 4 9 8 4 4 7 4 4 6 6
16 15 15 13 13 14 17 10 6 1 5 2 10 4 3 13 7 3 4 7 4 1 4 6 4 9 5 4 9 11 4 3 5 3 2 5 10 11 6 1 4 6 6 6 7
13 14 11 9 11 9 9 2 2 5 5 5 11 3 8 11 2 3 7 4 4 4 3 5 6 6 8 6 7 7 5 4 4 7 3 0 11 15 7 4 4 5 6 7 1
12 10 9 6 8 6 5 4 7 3 4 6 1 2 7 6 1 6 6 2 6 3 3 8 4 9 7 6 6 1 8 5 3 5 4 6 4 9 4 4 4 2 2 4 4
11 8 6 5 4 6 4 7 7 3 4 9 4 3 6 11 0 3 5 2 2 6 4 3 1 10 9 7 6 4 5 5 8 6 1 1 3 4 5 6 4 7 2 7 7
11 7 3 3 1 3 7 11 7 2 4 12 5 2 5 5 1 1 9 3 5 5 4 1 4 6 6 5 6 4 6 5 4 5 2 5 2 5 2 4 4 7 7 7 7
11 7 7 3 2 4 10 11 1 6 2 8 4 3 3 4 6 3 4 3 3 5 5 1 1 5 6 4 8 8 5 5 4 3 3 6 5 4 3 2 4 3 5 7 7
12 9 8 3 2 5 10 5 5 5 4 9 5 6 2 4 1 3 5 4 4 5 1 3 4 4 2 7 2 3 14 2 2 1 4 1 2 5 4 4 3 3 6 8 5
16 14 8 6 5 6 4 5 7 3 5 4 3 4 4 1 2 4 7 4 2 3 4 4 3 3 0 4 6 3 4 4 6 3 3 1 4 3 3 4 6 8 8 8 8
21 16 7 10 7 5 5 5 6 5 3 5 6 5 5 3 2 3 3 4 2 2 6 4 2 2 2 3 4 4 3 2 6 1 2 3 3 4 3 5 6 5 6 6 5
16 8 5 9 6 6 5 0 2 2 5 3 2 2 3 5 5 4 3 3 1 3 1 3 5 2 2 4 1 5 7 2 2 3 2 1 1 2 4 4 3 3 4 3 3
10 4 7 7 3 5 3 5 3 4 2 2 2 3 2 2 3 4 1 3 4 4 5 3 3 0 2 4 1 3 2 3 4 3 3 3 2 1 2 5 4 4 4 3 3
4 3 8 7 4 2 2 3 3 4 3 1 1 2 2 2 2 2 2 2 4 2 2 2 4 4 3 2 2 1 3 3 3 2 1 2 2 2 2 3 4 4 4 3 3
2 2 4 5 3 2 4 2 2 3 3 3 2 3 1 2 1 2 2 2 3 3 2 2 2 3 3 3 3 3 2 3 4 3 2 3 2 2 3 1 3 5 4 3 3
3 2 3 3 2 5 2 2 3 2 3 3 3 2 2 1 2 2 2 4 4 2 9 5 3 3 4 2 3 4 3 3 5 3 2 3 1 4 5 6 3 3 4 5 4
3 2 2 0 2 2 2 4 2 3 3 1 3 3 2 2 2 1 3 2 4 7 3 4 4 3 5 4 3 2 5 5 3 3 4 3 4 5 4 2 4 3 6 6 6
3 3 2 1 0 2 5 2 1 4 2 2 2 5 2 3 1 2 4 2 1 5 4 4 2 2 6 8 6 3 3 6 3 2 2 3 4 4 4 3 2 4 6 6 6
2 3 3 3 2 3 2 2 1 2 1 4 3 2 11 5 4 3 9 9 6 3 3 2 4 3 2 4 4 4 4 4 2 2 6 4 6 4 5 7 5 6 5 7 6
Wind_Direction
338 335 332 325 321 321 320 316 315 312 310 308 308 274 267 261 265 249 237 231 240 234 176 160 190 207 115 101 56 15 160 213 195 172 239 155 193 355 20 340 68 255 139 227 148
333 333 331 328 324 322 321 320 316 312 305 296 296 309 261 257 258 243 237 245 234 228 218 183 175 170 175 133 109 136 232 194 204 245 276 324 159 173 122 196 229 262 55 140 150
330 334 331 331 328 328 326 322 318 313 312 300 279 303 262 253 262 242 252 238 227 217 215 203 223 158 194 138 170 155 202 224 114 51 1 304 297 171 133 190 221 187 159 157 155
328 326 328 326 326 327 328 326 317 312 310 297 281 265 292 221 226 226 223 221 210 203 204 184 201 194 186 177 194 199 207 293 46 6 339 346 312 87 253 158 321 188 170 155 162
321 318 316 317 318 317 319 323 318 315 316 300 297 278 285 214 232 267 104 232 196 200 187 176 178 187 156 183 144 206 148 270 336 332 310 47 266 241 190 339 72 129 163 165 166
315 312 314 313 314 312 317 318 320 316 313 304 298 316 283 231 241 244 254 168 174 184 182 164 190 213 129 150 164 119 258 277 308 327 290 98 290 277 114 123 125 150 172 172 173
304 303 307 313 318 309 312 317 316 315 311 309 305 311 245 221 242 233 244 202 189 186 162 184 148 157 142 146 137 116 315 279 259 285 298 65 289 241 154 96 127 188 178 171 177
294 296 304 311 311 309 311 315 313 310 305 300 303 296 266 237 233 281 186 198 188 204 192 196 195 226 170 119 64 126 360 213 234 269 282 105 250 249 199 122 125 169 180 178 189
295 294 297 302 305 313 315 315 310 304 297 298 301 123 264 311 204 231 198 177 162 170 186 189 153 193 102 111 87 11 167 227 342 108 337 143 228 345 257 168 190 203 204 224 192
295 297 303 296 305 316 322 320 319 299 305 261 128 209 266 258 167 199 200 131 127 123 106 118 155 152 120 133 187 154 156 221 176 41 66 298 290 295 312 160 188 211 226 218 241
290 295 308 305 309 322 328 346 2 353 4 304 307 273 328 327 144 164 168 94 95 8 132 160 139 199 128 129 114 117 95 155 97 49 30 341 293 298 304 252 231 208 231 246 240
288 297 307 302 310 321 336 39 196 303 309 271 288 350 332 315 182 152 163 125 150 161 114 141 205 152 148 133 127 123 111 252 112 114 208 230 294 291 293 260 206 203 190 224 164
279 294 302 302 311 324 334 334 316 264 298 315 302 78 268 319 104 169 141 79 124 114 148 147 184 156 153 141 125 69 179 192 150 114 327 348 259 249 279 248 153 243 194 93 151
260 272 291 288 303 338 326 349 333 222 44 320 354 42 352 322 8 119 96 114 92 128 95 140 81 157 149 167 149 124 183 203 135 114 66 304 301 235 214 250 207 199 210 71 63
236 239 260 226 332 331 322 332 328 78 38 320 335 341 345 324 337 238 113 322 131 120 106 43 111 137 154 176 153 146 143 139 117 117 148 166 215 258 146 227 253 62 71 65 61
211 198 189 184 290 309 318 322 351 40 293 333 338 360 28 329 352 96 158 73 134 76 66 98 111 135 176 139 166 135 97 59 68 108 241 192 173 279 113 8 69 70 72 73 66
180 165 172 121 352 316 327 13 29 98 294 325 346 5 45 336 287 148 146 112 130 106 115 63 351 323 126 111 93 123 148 90 59 351 216 339 130 253 23 20 300 207 110 91 61
152 150 111 77 41 350 4 48 62 257 252 320 327 311 331 235 317 122 133 128 1 104 102 141 178 249 323 139 156 149 169 150 168 170 187 155 216 293 47 51 44 61 83 77 66
143 117 77 27 17 10 65 51 193 209 292 330 326 27 12 333 327 82 125 121 181 178 133 132 67 308 74 106 142 170 183 143 106 232 127 179 236 96 90 66 68 66 61 63 58
117 86 47 5 13 50 69 211 187 236 329 3 61 58 30 321 343 39 52 1 61 34 55 179 103 12 102 111 312 161 155 92 22 137 190 17 272 119 6 14 142 143 123 114 94
85 77 4 356 27 48 118 229 296 272 291 15 16 336 293 314 3 359 54 37 8 354 52 133 83 10 86 20 95 89 91 48 109 84 144 125 260 153 340 311 215 178 184 156 107
68 64 353 358 53 69 91 200 316 326 338 5 305 252 265 325 334 24 138 44 344 315 83 27 109 96 81 18 344 74 138 128 126 258 32 99 293 337 52 342 126 179 176 157 125
72 37 348 355 99 340 316 325 301 324 321 328 254 224 247 198 57 65 53 356 352 29 107 180 16 92 41 11 12 80 84 107 99 72 189 114 273 3 322 234 185 175 209 197 161
91 59 337 46 149 125 129 327 311 280 280 272 288 271 224 38 355 126 118 38 357 22 47 60 67 127 162 146 131 130 114 74 99 112 158 196 289 238 274 276 273 228 172 191 204
36 244 195 89 337 114 166 149 340 344 288 254 309 335 311 77 63 120 72 86 37 345 54 77 98 55 49 10 65 122 141 136 121 154 133 221 202 248 224 229 262 232 167 185 202
131 128 83 71 195 60 349 337 149 288 325 357 82 358 19 88 359 161 120 55 53 18 62 4 123 103 27 3 30 64 87 109 105 95 41 94 276 302 307 4 49 210 198 211 212
137 107 105 15 61 67 272 350 340 268 82 49 356 65 51 27 31 33 90 80 74 89 109 63 119 62 282 346 7 352 225 175 159 160 141 166 236 336 326 327 348 337 220 219 213